Regional Weather Roundup
Issued by NWS Upton, NY

Home | Current Version | Previous Version | Text Only | Print | Product List | Glossary On
Versions: 1 2 3 4 5 6 7 8 9 10 11 12 13 14 15 16 17 18 19 20 21 22 23 24 25 26 27 28 29 30 31 32 33 34 35 36 37 38 39 40 41 42 43 44 45 46 47 48 49 50
000
ASUS41 KOKX 260305
RWROKX

REGIONAL WEATHER ROUNDUP
NATIONAL WEATHER SERVICE NEW YORK NY
1100 PM EDT FRI JUL 25 2014

NOTE: "FAIR" INDICATES FEW OR NO CLOUDS BELOW 12,000 FEET WITH NO
SIGNIFICANT WEATHER AND/OR OBSTRUCTIONS TO VISIBILITY.

NYZ071-072-176-178-NJZ106-104-260400-
NEW YORK CITY METRO AREA


CITY           SKY/WX    TMP DP  RH WIND       PRES   REMARKS
CENTRAL PARK   CLEAR     73  58  59 VRB7      30.04F
LAGUARDIA APRT PTCLDY    74  59  59 SW10      30.00F
KENNEDY INTL   PTCLDY    72  63  73 SW7       30.02F
NEWARK/LIBERTY PTCLDY    73  61  65 S10       30.01F
BRNX BOT. GARD   N/A     72  57  60 E1        30.01S
TETERBORO      CLEAR     75  58  55 S8        30.00S
$$

NYZ177-179-078>081-260400-
LONG ISLAND NEW YORK

CITY           SKY/WX    TMP DP  RH WIND       PRES   REMARKS
FARMINGDALE    CLEAR     71  64  78 SW7       30.02F
ISLIP          PTCLDY    71  62  73 SW7       30.01S
SHIRLEY        CLEAR     69  61  75 S5        30.03F
WESTHAMPTON    CLEAR     68  62  81 SW5       30.04F
MONTAUK POINT    N/A     70  61  73 SW7       30.03S
$$

NYZ052-065-067-260400-
HUDSON VALLEY

CITY           SKY/WX    TMP DP  RH WIND       PRES   REMARKS
WHITE PLAINS   CLEAR     66  60  81 CALM      30.01F
NEWBURGH       CLEAR     66  57  72 CALM      30.02
MONTGOMERY     CLEAR     61  57  87 S3        30.00S
POUGHKEEPSIE   CLEAR     63  60  90 CALM      29.99S
ALBANY         MOCLDY    67  60  78 CALM      29.98S
$$

NJZ001-105-106-008-010-013-015-019>022-104-260400-
NEW JERSEY

CITY           SKY/WX    TMP DP  RH WIND       PRES   REMARKS
NEWARK/LIBERTY PTCLDY    73  61  65 S10       30.01F
TETERBORO      CLEAR     75  58  55 S8        30.00S
CALDWELL       CLEAR     72  58  61 VRB3      30.01F
MORRISTOWN     CLEAR     68  59  73 CALM      30.01S
SOMERVILLE     NOT AVBL
LINDEN         FAIR      73  62  66 CALM      30.02F
SUSSEX         CLEAR     63  59  87 CALM      30.02S
ANDOVER          N/A     61  59  93 CALM      30.03S
TRENTON        CLEAR     69  63  81 SW5       30.01S
MILLVILLE      CLEAR     66  60  81 CALM      30.03F
ATLANTIC CITY  CLEAR     69  65  86 S7        30.03F
WRIGHTSTOWN    CLEAR     67  64  91 SW5       30.01S
TOMS RIVER     CLEAR     66  64  94 CALM      30.02F
BELMAR         CLEAR     70  61  73 S3        30.02F
$$

PAZ047>061-062-071-260400-
EASTERN PENNSYLVANIA

CITY           SKY/WX    TMP DP  RH WIND       PRES   REMARKS
PHILADELPHIA   PTCLDY    73  58  59 S6        30.01F
ALLENTOWN      CLEAR     65  55  70 CALM      30.01S
SCRANTON       CLEAR     67  50  54 CALM      30.02R
$$

CTZ002-004>006-009-010-012-RIZ004-006-007-MAZ004-011-015-260400-
SOUTHERN NEW ENGLAND
 IN CT

CITY           SKY/WX    TMP DP  RH WIND       PRES   REMARKS
BRADLEY INTL   CLEAR     69  58  67 CALM      29.98F
HARTFORD       CLEAR     68  60  75 S3        29.99S
DANBURY        CLEAR     65  57  75 CALM      30.03S
WTRBRY/OXFORD  CLEAR     64  55  72 CALM      30.04F
BRIDGEPORT     CLEAR     73  64  73 SW8       30.01F
MERIDEN        CLEAR     63  59  87 CALM      30.01S
NEW HAVEN      CLEAR     74  63  68 SW5       30.01F
CHESTER        FAIR      66  61  82 SW6       30.03S
GROTON         CLEAR     68  62  81 SW6       30.01R
WILLIMANTIC    CLEAR     68  58  70 CALM      30.01S

 IN RI

CITY           SKY/WX    TMP DP  RH WIND       PRES   REMARKS
PROVIDENCE     CLEAR     68  59  73 W7        30.00S
BLOCK ISLAND   CLEAR     70  63  78 SW12      30.02S
WESTERLY       CLEAR     69  61  75 SW3       30.02S

 IN MA

CITY           SKY/WX    TMP DP  RH WIND       PRES   REMARKS
BOSTON         CLEAR     72  59  63 SW9       29.97R
WORCESTER      CLEAR     65  57  75 W8        30.02R
WESTFIELD      CLEAR     63  60  90 CALM      29.99S
PROVINCETOWN   CLEAR     66  63  88 SW9       29.99S
NANTUCKET      CLEAR     64  61  90 SW7       30.01R
$$

ANZ330-335-338-340-345-350-353-355-260400-
COASTAL MARINE OBSERVATIONS


STATION/POSITION TIME  SKY/WX   TEMP    WIND        PRES    VSBY  WAVE
                                AIR SEA DIR/SP/G                  HT/PER
                 (UTC)          (F)     (DEG/KT/KT) (MB)    (MI)  (FT/S)
NY HARB ENTRANCE NOT AVBL
4S FIRE IS       NOT AVBL
23SW MTP         0300            71 71              1016.3          2/ 8
HUDSON CANYON    0300            72 75  220/ 10/ 12 1017.2          2/ 8
EXECUTION ROCKS  0300            74 72  200/ 10/ 14   N/A
WESTERN LI SOUND 0300            73     180/ 10/ 12   N/A           1
CENTRAL LI SOUND 0200            72 71  220/ 14/ 17   N/A           1/ 3
EASTERN LI SOUND 0200            69 67  230/  8/ 12   N/A
ROBBINS REEF     0200            74                   N/A
$$


>>>>>>>>>>>>>>>>>>>>>>>>>>>> KEY <<<<<<<<<<<<<<<<<<<<<<<<<<<
>                                                          <
>     SKY/WX - SKY CONDITION/PRESENT WEATHER               <
>     TMP    - TEMPERATURE IN FAHRENHEIT                   <
>     DP     - DEWPOINT IN FAHRENHEIT                      <
>     RH     - RELATIVE HUMIDITY IN PERCENT                <
>     WIND   - DIRECTION AND SPEED IN MPH                  <
>     PRES   - MEAN SEA LEVEL PRESSURE IN INCHES OF HG     <
>     WCI    - WIND CHILL INDEX                            <
>     VSB    - VISIBILITY IN MILES                         <
>     HX     - HEAT INDEX                                  <
>     TC     - TEMPERATURE IN CELSIUS                      <
>     VRB    - VARIABLE WIND DIRECTION                     <
>                                                          <
>>>>>>>>>>>>>>>>>>>>>>>>>>>> KEY <<<<<<<<<<<<<<<<<<<<<<<<<<<




USA.gov is the U.S. government's official web portal to all federal, state and local government web resources and services.